Location: Proctor
(47.8934°N, 114.3048°W)
Time: 08:20:21
(UTC+00:00)

Vanguard 2 Rocket - Pass Details

Date: 19 June 2024
Orbit: 555 x 3303 km, 32.9° (Epoch: 13 July)

Event Time Altitude Azimuth Distance (km) Brightness Sun altitude
Exits shadow 09:49:46 14° 202° (SSW) 5,868 10.3 -12.8°
Maximum altitude 10:03:56 32° 153° (SSE) 4,505 10.2 -11.6°
Drops below altitude 10° 10:17:58 10° 98° (E) 5,389 11.2 -10.2°
Sets 10:22:10 0° 89° (E) 6,063 11.7 -9.8°
